Location: Newark
(52.5694°N, 1.3190°W)
Time: 05:13:05
(UTC+00:00)

N. Korean satellite - Pass Details

Date: 31 January 2020
Orbit: 456 x 505 km, 97.2° (Epoch: 27 February)

Event Time Altitude Azimuth Distance (km) Brightness Sun altitude
Rises 04:41:51 0° 31° (NNE) 2,561 10.8 -28.5°
Reaches altitude 10° 04:45:10 10° 65° (ENE) 1,686 10.2 -28.0°
Maximum altitude 04:46:33 12° 87° (E) 1,579 10.1 -27.8°
Drops below altitude 10° 04:47:55 10° 110° (ESE) 1,690 10.1 -27.6°
Sets 04:51:15 0° 143° (SE) 2,577 10.6 -27.1°
